Regional Weather Roundup
Issued by NWS

Home | Current Version | Previous Version | Text Only | Print | Product List | Glossary Off
Versions: 1 2 3 4 5 6 7 8 9 10 11 12 13 14 15 16 17 18 19 20 21 22 23 24 25 26 27 28 29 30 31 32 33 34 35 36 37 38 39 40 41 42 43 44 45 46 47 48 49 50

000
ASUS43 KOAX 201602
RWRNE

WEATHER ROUNDUP FOR NEBRASKA
NATIONAL WEATHER SERVICE OMAHA NE
1100 AM CDT MON APR 20 2015

NOTES: SATELLITE DATA IS BEING USED TO AUGMENT CLOUD COVER ABOVE
       12000 FEET.
       "FAIR" INDICATES FEW OR NO CLOUDS BELOW 12,000 FEET WITH NO
       SIGNIFICANT WEATHER AND/OR OBSTRUCTIONS TO VISIBILITY.

  * THESE STATIONS DO NOT REPORT WEATHER SUCH AS RAIN...SNOW OR FOG.

NEZ001>004-019>022-054>056-201700-
NEBRASKA PANHANDLE

CITY           SKY/WX    TMP DP  RH WIND       PRES   REMARKS
SCOTTSBLUFF    SUNNY     46  29  51 W10       29.99F
ALLIANCE       SUNNY     46  22  38 W21G28    29.96F
CHADRON        SUNNY     47  23  38 NW17G24   29.97F
SIDNEY         SUNNY     45  23  42 W15       30.00F
$$

NEZ057>060-069>072-079>082-201700-
SOUTHWEST NEBRASKA

CITY           SKY/WX    TMP DP  RH WIND       PRES   REMARKS
NORTH PLATTE   SUNNY     50  24  36 NW20G28   29.96F
IMPERIAL       SUNNY     48  25  40 NW14      30.00S
MCCOOK         SUNNY     52  26  36 NW16G22   29.98F
$$

NEZ005>010-023>029-035>040-094-201700-
NORTH CENTRAL NEBRASKA

CITY           SKY/WX    TMP DP  RH WIND       PRES   REMARKS
VALENTINE      MOSUNNY   48  19  31 NW21G30   29.89F
AINSWORTH      SUNNY     48  19  31 NW20G31   29.89S
BROKEN BOW     SUNNY     49  21  33 NW23G32   29.91F
ORD            SUNNY     49  25  39 NW22G31   29.88F
$$

NEZ041-046>049-061>064-073>077-083>087-201700-
SOUTH CENTRAL NEBRASKA

CITY           SKY/WX    TMP DP  RH WIND       PRES   REMARKS
GRAND ISLAND   SUNNY     50  26  39 NW22G30   29.92S
HASTINGS       SUNNY     50  30  46 NW21G29   29.92F
KEARNEY *      SUNNY     48  27  43 NW18G25   29.94S
YORK           SUNNY     48  28  46 NW26G35   29.89R
$$

NEZ011>018-030>034-042>045-201700-
NORTHEAST NEBRASKA

CITY           SKY/WX    TMP DP  RH WIND       PRES   REMARKS
COLUMBUS *     SUNNY     48  25  40 NW26G38   29.87S
TEKAMAH        PTSUNNY   49  33  54 NW30G39   29.79F
$$

NEZ050>053-065>068-078-088>093-201700-
SOUTHEAST NEBRASKA

CITY           SKY/WX    TMP DP  RH WIND       PRES   REMARKS
LINCOLN        SUNNY     50  27  40 NW24G35   29.87S
OMAHA EPPLEY   PTSUNNY   48  32  53 NW22G33   29.80S
FALLS CITY     PTSUNNY   50  35  56 W26G37    29.85R
PLATTSMOUTH    PTSUNNY   49  29  47 NW25G36   29.82R
$$

NEZ044-045-051>053-067-201700-
OMAHA AREA

CITY           SKY/WX    TMP DP  RH WIND       PRES   REMARKS
OMAHA EPPLEY   PTSUNNY   48  32  53 NW22G33   29.80S
OFFUTT AFB     MOSUNNY   49  33  53 NW26G33   29.81R
PLATTSMOUTH    PTSUNNY   49  29  47 NW25G36   29.82R
$$


USA.gov is the U.S. government's official web portal to all federal, state and local government web resources and services.